GFSFLT2_con_sbcape_000.txt.gz
CAPE
1253 1299 1248 1215 1096 1002 961 932 945 925 870 726 590 449 249 60 7 37 26 5 24 41 119 96 69 92 99 61 25 8 0 0
865 1061 1270 903 836 873 802 743 759 805 805 654 434 309 259 205 202 60 215 184 156 221 203 212 198 162 126 107 66 0 0 0
833 803 829 679 572 660 734 761 686 673 666 548 348 50 10 53 157 310 290 294 271 313 364 321 250 144 69 83 60 0 0 0
553 537 502 393 591 491 349 353 335 312 364 270 129 64 49 149 129 266 451 463 576 552 517 505 338 23 0 4 0 0 0 0
315 243 191 249 373 202 53 96 77 89 118 74 82 130 81 71 84 19 8 111 59 10 15 13 0 0 0 0 0 0 0 0
183 51 40 26 0 24 2 38 35 84 148 159 121 50 10 0 0 0 0 0 0 0 0 0 0 0 0 0 0 0 0 0
13 0 0 0 3 1 0 40 108 118 168 172 3 0 0 0 0 0 0 0 0 0 0 0 0 0 0 0 0 0 0 0
5 0 0 0 0 0 0 2 65 185 133 7 0 0 0 0 0 0 0 0 0 0 0 0 0 0 0 0 0 0 0 0
0 0 0 0 0 0 0 0 0 2 0 0 0 0 0 0 0 0 0 0 0 0 0 0 0 0 0 0 0 0 0 0
26 37 23 0 0 0 0 0 0 0 0 0 0 0 0 0 0 0 0 0 0 0 0 0 0 0 0 0 0 0 0 0
36 9 0 0 0 0 0 0 0 0 0 0 0 0 0 0 0 0 0 0 0 0 0 0 0 0 0 0 0 0 0 0
0 0 0 0 0 0 0 0 0 0 0 0 0 0 0 0 0 0 0 0 0 0 0 0 0 0 0 0 0 0 0 0
0 0 0 0 0 0 0 0 0 0 0 0 0 0 0 0 0 0 0 0 0 0 0 0 0 0 0 0 0 0 0 0
0 0 0 0 0 0 0 0 0 0 0 0 0 0 0 0 0 0 0 0 0 0 0 0 0 0 0 0 0 0 0 0
0 0 0 0 0 0 0 0 0 0 0 0 0 0 0 0 0 0 0 0 0 0 0 0 0 0 0 0 0 0 0 0
0 0 0 0 0 0 0 0 0 0 0 0 0 0 0 0 0 0 0 0 0 0 0 0 0 0 0 0 0 0 0 1
0 0 0 0 0 0 0 0 0 0 0 0 0 0 0 0 0 0 0 0 0 0 0 0 0 0 0 0 0 0 0 1
0 0 0 0 0 0 0 0 0 0 0 0 0 0 0 0 0 0 0 0 0 0 0 0 0 0 0 0 0 0 0 3
0 0 0 0 0 0 0 0 0 0 0 0 0 0 0 0 0 0 0 0 0 0 0 0 0 0 0 0 0 0 0 0
0 0 0 0 0 0 0 0 0 0 0 0 0 0 0 0 0 0 0 0 0 0 0 0 0 0 0 0 0 0 0 0

GFSFLT2_con_sbcape_003.txt.gz
CAPE
1413 1401 1470 1185 1137 1102 985 867 915 879 804 707 535 372 228 121 121 185 198 100 143 182 155 182 188 283 246 202 201 2 0 0
1377 1539 1454 1469 1513 1064 988 911 815 781 699 593 374 335 292 277 269 133 321 395 327 401 362 360 343 370 224 133 155 2 0 0
1319 1184 1373 1601 1533 1223 871 783 716 694 588 485 329 348 323 339 211 323 487 397 463 608 572 490 387 276 122 112 62 12 15 0
976 981 1187 1145 1104 1055 872 663 476 449 428 533 520 547 533 467 463 343 463 445 627 496 380 336 318 267 168 14 0 0 0 0
766 871 980 985 910 762 563 399 378 388 483 461 553 598 820 788 727 596 531 197 116 11 16 51 123 68 0 0 0 0 0 0
903 654 644 536 422 407 234 228 288 380 505 618 761 703 467 146 77 22 14 7 11 0 0 0 0 0 0 0 0 0 0 0
362 207 181 119 117 138 144 232 384 504 620 766 757 546 185 33 0 0 0 0 0 0 0 0 0 0 0 0 0 0 0 0
130 30 38 52 55 102 98 1 16 198 278 8 13 74 21 0 0 0 0 0 0 0 0 0 0 0 0 0 0 0 0 0
75 43 95 94 84 134 20 0 0 0 0 0 0 0 0 0 0 0 0 0 0 0 0 0 0 0 0 0 0 0 0 0
68 140 50 0 0 0 0 0 0 0 0 0 0 0 0 0 0 0 0 0 0 0 0 0 0 0 0 0 0 0 0 0
187 1 0 0 0 0 0 0 0 0 0 0 0 0 0 0 0 0 0 0 0 0 0 0 0 0 0 0 0 0 0 0
0 0 0 0 0 0 0 0 0 0 0 0 0 0 0 0 0 0 0 0 0 0 0 0 0 0 0 0 0 0 0 0
0 0 0 0 0 0 0 0 0 0 0 0 0 0 0 0 0 0 0 0 0 0 0 0 0 0 0 0 0 0 0 0
4 0 0 0 0 0 0 0 0 0 0 0 0 0 0 0 0 0 0 0 0 0 0 0 0 0 0 0 0 0 0 0
0 0 0 0 0 0 0 0 0 0 0 0 0 0 0 0 0 0 0 0 0 0 0 0 0 0 0 0 0 0 1 0
0 0 0 0 0 0 0 0 0 0 0 0 0 0 0 0 0 0 0 0 0 0 0 0 0 0 0 0 0 2 0 0
0 0 0 0 0 0 0 0 0 0 0 0 0 0 0 0 0 0 0 0 0 0 0 0 0 0 0 0 0 0 0 1
0 0 0 0 0 0 0 0 0 0 0 0 0 0 0 0 0 0 0 0 0 0 0 0 0 0 0 0 0 0 0 6
0 0 0 0 0 0 0 0 0 0 0 0 0 0 0 0 0 0 0 0 0 0 0 0 0 0 0 0 0 0 0 2
0 0 0 0 0 0 0 0 0 0 0 0 0 0 0 0 0 0 0 0 0 0 0 0 0 0 0 3 3 10 20 17

GFSFLT2_con_sbcape_006.txt.gz
CAPE
1061 998 952 1077 1024 926 808 851 900 829 696 556 339 176 128 110 143 203 187 104 112 167 156 227 237 257 177 107 91 17 0 0
1357 1244 1230 1168 1246 946 853 807 802 768 568 419 309 301 231 264 123 240 288 307 327 362 494 551 444 432 202 105 72 101 0 0
1006 1085 1106 1037 1070 1114 802 768 676 545 466 351 206 262 297 201 164 273 492 516 545 624 486 362 332 363 87 26 46 0 0 0
1234 1205 1054 1113 814 761 538 322 192 175 352 581 407 810 823 601 407 456 477 326 472 58 7 63 131 17 0 0 0 0 0 0
907 944 922 867 620 386 112 68 216 474 724 853 894 1038 1079 735 431 290 326 50 91 6 4 0 17 0 0 0 0 0 0 0
801 622 711 641 203 137 258 317 571 692 946 1090 1196 1117 1115 481 301 198 208 59 9 1 0 0 0 0 0 0 0 0 0 0
596 481 426 325 316 464 587 726 854 961 1140 1212 890 319 331 401 300 79 1 0 0 0 0 0 0 0 0 0 0 0 0 0
412 248 358 587 769 867 429 286 311 618 952 575 194 180 35 117 27 0 0 0 0 0 0 0 0 0 0 0 0 0 0 0
392 487 666 489 344 303 182 57 70 145 388 418 150 83 8 0 0 0 0 0 0 0 0 0 0 0 0 0 0 0 0 0
375 436 445 276 93 0 0 6 25 18 5 0 0 0 0 0 0 0 0 0 0 0 0 0 0 0 0 0 0 0 0 0
602 437 76 0 16 0 0 0 0 0 0 0 0 0 0 0 0 0 0 0 0 0 0 0 0 0 0 0 0 0 0 1
598 353 287 402 157 0 0 0 0 0 0 0 0 0 0 0 0 0 0 0 0 0 0 0 0 0 0 0 3 0 0 8
670 458 307 364 76 39 0 0 0 0 0 0 0 0 0 0 0 0 0 0 0 0 0 0 0 0 0 0 0 0 2 18
598 456 377 46 9 0 0 0 0 0 0 0 0 0 0 0 0 0 0 0 0 0 0 0 0 5 12 0 0 0 0 9
615 215 1 0 0 0 0 0 0 0 0 0 0 0 0 0 0 0 0 0 0 0 0 0 0 0 10 7 0 0 0 0
26 0 0 0 0 0 0 0 0 0 0 0 0 0 0 0 0 0 0 0 1 4 0 0 0 0 1 0 1 0 5 0
0 0 0 0 0 0 0 0 0 0 0 0 0 0 0 0 0 0 0 0 7 10 3 0 0 0 1 0 0 0 2 6
0 0 0 0 0 0 0 0 0 0 0 0 0 0 0 0 0 0 8 15 30 6 0 0 1 0 1 1 2 5 7 11
0 0 0 0 0 0 0 0 0 0 0 0 0 0 0 0 0 0 9 44 5 1 1 0 11 10 7 5 11 22 24 29
0 0 0 0 0 0 0 0 0 0 0 0 0 0 0 0 0 7 15 11 1 6 67 48 24 20 13 23 35 37 34 42

GFSFLT2_con_sbcape_009.txt.gz
CAPE
664 771 710 580 669 674 715 788 790 683 472 284 126 120 114 125 186 223 247 181 190 270 308 359 388 351 243 145 93 170 17 0
1070 1005 1043 1099 952 657 702 699 680 586 405 247 179 216 175 153 118 349 420 420 455 591 577 459 395 407 218 82 90 124 0 2
1046 929 907 891 969 835 689 722 635 474 423 257 220 390 272 187 204 345 489 453 461 524 132 72 161 387 430 72 81 0 0 0
896 936 855 951 568 542 334 107 99 163 428 361 410 505 347 5 140 394 458 308 324 303 73 173 111 3 27 231 0 0 0 0
832 956 823 635 419 183 51 23 171 506 679 547 760 500 660 437 301 340 368 242 183 78 62 49 23 0 0 0 0 0 0 0
649 539 590 441 149 56 72 444 525 552 815 814 819 598 565 457 400 480 286 218 90 69 83 22 0 0 0 0 0 0 0 0
453 440 421 382 337 511 712 946 934 1065 1088 1085 846 503 301 181 212 137 308 68 57 63 57 0 0 0 0 0 0 0 0 0
386 232 383 619 883 805 470 452 518 470 786 1081 778 452 268 139 95 90 48 47 28 1 0 0 0 0 0 0 0 0 0 0
399 701 802 752 580 340 226 119 84 217 552 920 1064 679 445 265 8 46 60 0 0 0 0 0 0 0 0 0 0 0 0 0
606 752 667 462 319 0 56 93 76 40 1 21 0 0 0 0 0 0 0 0 0 0 0 0 0 0 0 0 0 0 0 13
612 755 549 465 138 174 38 1 0 0 0 0 0 0 0 0 0 0 0 0 0 0 0 0 0 0 0 3 5 0 9 0
817 681 440 546 550 93 0 0 0 0 0 0 0 0 0 0 0 0 0 0 0 1 0 0 1 12 4 5 5 0 0 1
973 736 636 706 348 108 11 0 0 0 0 0 0 0 0 0 0 0 0 0 1 9 18 24 8 1 0 3 0 0 8 0
1019 826 727 280 76 10 41 16 0 0 0 0 0 0 0 0 0 0 1 0 2 10 25 19 1 0 0 5 0 0 0 0
924 700 273 23 5 0 0 0 0 0 0 0 0 0 0 0 0 0 0 2 0 10 7 16 5 0 0 0 1 1 2 0
525 144 3 0 0 0 0 2 2 0 0 0 0 0 0 0 0 0 0 0 1 3 6 12 11 7 9 5 10 13 9 5
46 0 0 0 0 0 0 0 0 0 0 0 0 0 0 0 0 0 0 0 2 11 29 27 21 31 24 12 2 2 2 12
0 0 0 0 0 0 0 0 0 0 0 0 0 0 0 0 0 0 0 0 10 30 34 30 33 19 11 12 14 18 16 25
0 0 0 0 0 0 0 0 0 0 0 0 0 0 0 0 0 0 0 2 19 11 21 24 31 45 21 16 28 36 44 43
0 0 0 0 0 0 0 0 0 0 0 0 0 0 0 0 0 0 8 16 10 20 57 77 66 50 32 47 52 48 46 45

GFSFLT2_con_sbcape_012.txt.gz
CAPE
118 256 622 516 475 479 529 571 533 521 407 257 287 323 340 404 477 467 465 495 568 649 602 524 463 390 255 164 73 56 0 7
185 285 200 674 457 399 419 430 409 404 298 220 239 280 323 360 442 503 485 401 397 468 226 128 231 278 213 266 120 33 0 0
270 404 624 771 572 432 445 501 386 380 230 218 92 161 214 287 355 365 338 134 139 221 60 69 141 183 304 428 305 0 0 0
467 625 588 632 348 388 204 152 67 184 205 209 341 595 58 32 313 345 438 178 196 252 203 255 156 0 8 121 0 0 0 0
668 698 791 636 387 305 86 193 304 679 631 761 717 780 671 523 477 541 385 251 220 157 134 53 17 0 0 0 0 0 0 0
710 636 420 227 86 53 150 347 609 639 801 675 793 888 701 480 239 52 61 109 133 131 58 22 0 0 0 0 0 0 0 0
357 434 433 471 392 691 846 834 914 951 960 928 801 546 303 152 88 91 145 96 35 0 0 0 0 0 0 0 0 0 0 0
414 312 526 712 918 586 544 532 539 530 884 1031 781 555 312 130 64 0 1 0 0 0 0 0 0 0 0 0 0 0 0 0
252 400 1075 812 657 499 289 0 115 390 596 640 620 5 1 0 0 0 0 0 0 0 0 0 0 0 0 0 0 0 0 0
419 698 774 496 58 9 78 289 116 0 0 0 0 0 0 0 0 0 0 0 0 0 0 0 0 0 0 0 0 0 0 0
759 791 532 97 254 191 289 70 0 0 0 0 0 0 0 0 0 0 0 0 0 0 0 0 0 0 0 0 0 0 0 0
810 731 624 338 504 78 6 0 0 0 0 0 0 0 0 0 0 0 0 0 0 0 0 0 1 0 0 0 0 0 0 0
763 697 571 604 318 1 0 0 0 0 0 0 0 0 0 0 0 0 0 0 0 0 0 0 0 0 0 0 0 0 0 0
884 688 657 682 182 44 59 0 0 0 0 0 0 0 0 0 0 0 0 0 0 0 0 0 0 0 0 0 0 0 0 0
988 630 719 127 2 0 0 0 0 0 0 0 0 0 0 0 0 0 0 0 0 0 0 0 0 0 0 0 0 0 0 0
788 620 5 0 0 0 0 0 0 0 0 0 0 0 0 0 0 0 0 0 0 0 0 0 0 0 0 0 0 0 0 0
556 0 0 0 0 0 0 0 0 0 0 0 0 0 0 0 0 0 0 0 0 0 7 2 0 0 0 0 0 0 0 0
1 0 0 0 0 0 0 0 0 0 0 0 0 0 0 0 0 0 0 0 0 4 0 0 0 0 0 1 0 0 0 0
0 0 0 0 0 0 0 0 0 0 0 0 0 0 0 0 0 0 0 0 0 0 0 0 0 0 0 0 0 1 0 1
0 0 0 0 0 0 0 0 0 0 0 0 0 0 0 0 0 0 0 0 0 0 0 4 16 15 0 0 3 1 9 8

GFSFLT2_con_sbcape_015.txt.gz
CAPE
41 124 56 288 322 398 384 406 310 209 219 293 300 310 396 474 504 521 450 357 300 190 93 86 169 168 203 189 102 87 0 0
31 147 146 274 291 274 260 223 159 156 179 181 176 242 350 389 384 434 300 119 54 52 12 36 65 105 148 223 184 0 0 0
87 62 182 234 248 269 237 267 154 135 148 122 90 40 54 191 122 252 147 84 13 25 31 60 78 12 108 127 33 0 0 0
5 91 301 342 258 164 76 100 39 8 8 21 0 21 8 30 76 184 146 95 70 71 108 128 31 0 0 0 0 0 0 0
75 277 388 342 170 84 17 2 4 56 47 26 100 73 35 2 1 23 12 53 23 14 0 0 0 0 0 0 0 0 0 0
281 415 430 134 236 75 2 8 154 207 228 177 192 34 0 0 0 0 0 0 0 0 0 0 0 0 0 0 0 0 0 0
252 27 49 0 84 235 246 262 359 484 383 233 70 0 0 0 0 0 0 0 0 0 0 0 0 0 0 0 0 0 0 0
8 24 94 191 34 8 6 1 19 212 335 180 4 0 0 0 0 0 0 0 0 0 0 0 0 0 0 0 0 0 0 0
5 28 104 38 12 0 0 0 1 2 0 0 0 0 0 0 0 0 0 0 0 0 0 0 0 0 0 0 0 0 0 0
0 427 112 4 0 0 0 0 0 0 0 0 0 0 0 0 0 0 0 0 0 0 0 0 0 0 0 0 0 0 0 0
286 75 0 0 0 0 0 0 0 0 0 0 0 0 0 0 0 0 0 0 0 0 0 0 0 0 0 0 0 0 0 0
256 23 0 0 6 0 0 0 0 0 0 0 0 0 0 0 0 0 0 0 0 0 0 0 0 0 0 0 0 0 0 0
308 124 0 16 0 0 0 0 0 0 0 0 0 0 0 0 0 0 0 0 0 0 0 0 0 0 0 0 0 0 0 0
259 200 69 81 0 0 0 0 0 0 0 0 0 0 0 0 0 0 0 0 0 0 0 0 0 0 0 0 0 0 0 0
324 185 86 14 0 0 0 0 0 0 0 0 0 0 0 0 0 0 0 0 0 0 0 0 0 0 0 0 0 0 0 0
391 275 0 0 0 0 0 0 0 0 0 0 0 0 0 0 0 0 0 0 0 0 0 0 0 0 0 0 0 0 0 0
378 0 0 0 0 0 0 0 0 0 0 0 0 0 0 0 0 0 0 0 0 0 0 0 0 0 0 0 0 0 0 0
0 0 0 0 0 0 0 0 0 0 0 0 0 0 0 0 0 0 0 0 0 0 0 0 0 0 0 0 0 0 0 0
0 0 0 0 0 0 0 0 0 0 0 0 0 0 0 0 0 0 0 0 0 0 0 0 0 0 0 0 0 0 0 0
0 0 0 0 0 0 0 0 0 0 0 0 0 0 0 0 0 0 0 0 0 0 0 0 0 0 0 0 0 0 0 0

GFSFLT2_con_sbcape_018.txt.gz
CAPE
20 28 69 184 226 294 340 269 175 198 223 267 295 312 359 425 454 459 346 210 54 20 31 41 64 95 168 135 0 0 0 0
11 3 1 105 254 272 212 208 149 182 224 221 210 265 350 385 326 279 185 4 0 3 29 19 46 150 137 53 0 0 0 0
0 17 132 136 236 192 201 182 108 124 169 148 54 42 49 66 32 60 39 3 0 8 33 77 0 15 27 0 0 0 0 0
15 5 144 160 176 120 46 58 24 8 5 6 0 0 0 10 55 25 23 35 47 12 41 0 0 0 0 0 0 0 0 0
0 22 86 127 72 21 10 1 0 0 0 0 2 0 0 0 0 0 0 0 0 0 0 0 0 0 0 0 0 0 0 0
0 36 231 123 23 0 0 0 5 17 14 15 0 0 0 0 0 0 0 0 0 0 0 0 0 0 0 0 0 0 0 0
8 103 267 30 11 0 0 28 132 123 145 36 0 0 0 0 0 0 0 0 0 0 0 0 0 0 0 0 0 0 0 0
187 166 3 0 1 5 0 68 57 69 9 0 0 0 0 0 0 0 0 0 0 0 0 0 0 0 0 0 0 0 0 0
0 0 3 0 0 0 0 13 0 0 0 0 0 0 0 0 0 0 0 0 0 0 0 0 0 0 0 0 0 0 0 0
5 156 0 0 0 0 0 0 0 0 0 0 0 0 0 0 0 0 0 0 0 0 0 0 0 0 0 0 0 0 0 0
185 4 0 0 0 0 0 0 0 0 0 0 0 0 0 0 0 0 0 0 0 0 0 0 0 0 0 0 0 0 0 0
125 0 0 0 0 0 0 0 0 0 0 0 0 0 0 0 0 0 0 0 0 0 0 0 0 0 0 0 0 0 0 0
62 0 0 0 0 0 0 0 0 0 0 0 0 0 0 0 0 0 0 0 0 0 0 0 0 0 0 0 0 0 0 0
37 0 0 0 0 0 0 0 0 0 0 0 0 0 0 0 0 0 0 0 0 0 0 0 0 0 0 0 0 0 0 0
93 0 0 0 0 0 0 0 0 0 0 0 0 0 0 0 0 0 0 0 0 0 0 0 0 0 0 0 0 0 0 0
202 70 0 0 0 0 0 0 0 0 0 0 0 0 0 0 0 0 0 0 0 0 0 0 0 0 0 0 0 0 0 0
129 18 0 0 0 0 0 0 0 0 0 0 0 0 0 0 0 0 0 0 0 0 0 0 0 0 0 0 0 0 0 0
152 0 0 0 0 0 0 0 0 0 0 0 0 0 0 0 0 0 0 0 0 0 0 0 0 0 0 0 0 0 0 0
0 0 0 0 0 0 0 0 0 0 0 0 0 0 0 0 0 0 0 0 0 0 0 0 0 0 0 0 0 0 0 0
0 0 0 0 0 0 0 0 0 0 0 0 0 0 0 0 0 0 0 0 0 0 0 0 0 0 0 0 0 0 0 0

GFSFLT2_con_sbcape_021.txt.gz
CAPE
6 6 4 20 239 270 224 267 279 366 398 404 400 368 365 379 404 372 298 179 114 73 90 144 277 59 0 0 0 0 0 0
1 1 50 133 173 166 154 180 229 287 351 307 279 308 351 322 289 251 109 41 61 79 150 48 297 3 0 0 0 0 0 0
3 0 0 47 120 172 199 199 207 243 233 225 128 86 64 15 87 33 10 1 22 94 18 0 0 0 0 0 0 0 0 0
0 0 2 165 310 173 77 73 72 49 37 15 2 0 2 0 40 33 30 17 17 0 0 0 0 0 0 0 0 0 0 0
11 27 95 203 130 36 5 3 0 0 0 0 0 0 0 0 0 0 0 0 0 0 0 0 0 0 0 0 0 0 0 0
12 32 153 145 35 9 3 0 0 0 0 0 0 0 0 0 0 0 0 0 0 0 0 0 0 0 0 0 0 0 0 0
4 0 194 106 0 0 0 0 9 29 1 0 0 0 0 0 0 0 0 0 0 0 0 0 0 0 0 0 0 0 0 0
0 9 210 12 0 0 0 8 43 43 14 0 0 0 0 0 0 0 0 0 0 0 0 0 0 0 0 0 0 0 0 0
148 132 52 0 0 0 0 32 4 0 0 0 0 0 0 0 0 0 0 0 0 0 0 0 0 0 0 0 0 0 0 0
2 137 0 0 0 0 0 0 0 0 0 0 0 0 0 0 0 0 0 0 0 0 0 0 0 0 0 0 0 0 0 0
5 2 0 0 0 0 0 0 0 0 0 0 0 0 0 0 0 0 0 0 0 0 0 0 0 0 0 0 0 0 0 0
13 0 0 0 0 0 0 0 0 0 0 0 0 0 0 0 0 0 0 0 0 0 0 0 0 0 0 0 0 0 0 0
0 0 0 0 0 0 0 0 0 0 0 0 0 0 0 0 0 0 0 0 0 0 0 0 0 0 0 0 0 0 0 0
0 0 0 0 0 0 0 0 0 0 0 0 0 0 0 0 0 0 0 0 0 0 0 0 0 0 0 0 0 0 0 0
0 0 0 0 0 0 0 0 0 0 0 0 0 0 0 0 0 0 0 0 0 0 0 0 0 0 0 0 0 0 0 0
87 0 0 0 0 0 0 0 0 0 0 0 0 0 0 0 0 0 0 0 0 0 0 0 0 0 0 0 0 0 0 0
119 0 0 0 0 0 0 0 0 0 0 0 0 0 0 0 0 0 0 0 0 0 0 0 0 0 0 0 0 0 0 0
66 0 0 0 0 0 0 0 0 0 0 0 0 0 0 0 0 0 0 0 0 0 0 0 0 0 0 0 0 0 0 0
3 0 0 0 0 0 0 0 0 0 0 0 0 0 0 0 0 0 0 0 0 0 0 0 0 0 0 0 0 0 0 0
36 0 0 0 0 0 0 0 0 0 0 0 0 0 0 0 0 0 0 0 0 0 0 0 0 0 0 0 0 0 0 0

GFSFLT2_con_sbcape_024.txt.gz
CAPE
3 3 25 163 276 318 318 380 475 551 555 524 512 475 437 440 404 392 342 282 217 257 437 130 12 4 10 0 0 0 0 0
3 1 8 61 145 222 239 283 338 377 408 372 303 337 388 314 278 312 237 197 243 170 222 32 0 0 0 0 0 0 0 0
5 5 17 1 148 223 250 300 264 275 255 237 99 85 72 1 61 86 82 64 121 40 0 0 0 0 0 0 0 0 0 0
0 0 0 0 212 145 46 93 68 72 72 46 24 5 0 3 24 91 64 47 0 0 0 0 0 0 0 0 0 0 0 0
7 1 0 0 165 88 36 13 1 3 5 0 0 0 0 0 0 0 0 0 0 0 0 0 0 0 0 0 0 0 0 0
0 0 69 113 15 0 0 0 0 0 0 0 0 0 0 0 0 0 0 0 0 0 0 0 0 0 0 0 0 0 0 0
2 0 58 72 0 0 0 0 0 0 0 0 0 0 0 0 0 0 0 0 0 0 0 0 0 0 0 0 0 0 0 0
0 0 90 34 0 0 0 0 0 0 0 0 0 0 0 0 0 0 0 0 0 0 0 0 0 0 0 0 0 0 0 0
0 0 63 3 0 0 0 0 6 0 0 0 0 0 0 0 0 0 0 0 0 0 0 0 0 0 0 0 0 0 0 0
3 52 30 0 0 0 0 0 0 0 0 0 0 0 0 0 0 0 0 0 0 0 0 0 0 0 0 0 0 0 0 0
33 39 0 0 0 0 0 0 0 0 0 0 0 0 0 0 0 0 0 0 0 0 0 0 0 0 0 0 0 0 0 0
17 1 0 0 0 0 0 0 0 0 0 0 0 0 0 0 0 0 0 0 0 0 0 0 0 0 0 0 0 0 0 0
4 0 0 0 0 0 0 0 0 0 0 0 0 0 0 0 0 0 0 0 0 0 0 0 0 0 0 0 0 0 0 0
0 0 0 0 0 0 0 0 0 0 0 0 0 0 0 0 0 0 0 0 0 0 0 0 0 0 0 0 0 0 0 0
0 0 0 0 0 0 0 0 0 0 0 0 0 0 0 0 0 0 0 0 0 0 0 0 0 0 0 0 0 0 0 0
6 0 0 0 0 0 0 0 0 0 0 0 0 0 0 0 0 0 0 0 0 0 0 0 0 0 0 0 0 0 0 0
0 0 0 0 0 0 0 0 0 0 0 0 0 0 0 0 0 0 0 0 0 0 0 0 0 0 0 0 0 0 0 0
1 0 0 0 0 0 0 0 0 0 0 0 0 0 0 0 0 0 0 0 0 0 0 0 0 0 0 0 0 0 0 0
18 0 0 0 0 0 0 0 0 0 0 0 0 0 0 0 0 0 0 0 0 0 0 0 0 0 0 0 0 0 0 0
19 0 0 0 0 0 0 0 0 0 0 0 0 0 0 0 0 0 0 0 0 0 0 0 0 0 0 0 0 0 0 0

GFSFLT2_con_sbcape_027.txt.gz
CAPE
1 9 2 65 235 278 356 512 502 558 564 590 579 471 433 392 330 263 261 325 418 186 60 171 119 0 0 0 0 0 0 0
5 2 3 15 93 309 402 387 431 461 495 399 311 359 346 337 260 243 228 216 359 109 37 20 0 0 0 0 0 0 0 0
6 15 1 17 138 334 407 410 402 367 308 273 146 129 91 38 71 128 191 73 78 51 0 0 0 0 0 0 0 0 0 0
10 2 0 0 56 133 232 268 201 176 152 136 96 117 75 42 85 154 38 0 0 0 0 0 0 0 0 0 0 0 0 0
3 0 0 0 0 46 122 144 121 134 116 107 92 117 19 14 0 0 0 0 0 0 0 0 0 0 0 0 0 0 0 0
4 0 0 2 8 165 72 56 71 99 41 97 153 18 0 0 0 0 0 0 0 0 0 0 0 0 0 0 0 0 0 0
6 0 0 104 165 111 38 32 37 52 73 134 75 0 0 0 0 0 0 0 0 0 0 0 0 0 0 0 0 0 0 0
5 29 108 234 210 39 4 26 43 38 76 85 0 0 0 0 0 0 0 0 0 0 0 0 0 0 0 0 0 0 0 0
6 14 204 388 183 6 4 1 57 106 94 0 0 0 0 0 0 0 0 0 0 0 0 0 0 0 0 0 0 0 0 0
22 10 131 427 143 0 2 57 260 253 62 0 0 0 0 0 0 0 0 0 0 0 0 0 0 0 0 0 0 0 0 0
67 92 192 360 166 1 35 199 243 102 22 0 0 0 0 0 0 0 0 0 0 0 0 0 0 0 0 0 0 0 0 0
143 133 217 262 70 7 25 54 6 2 1 0 0 0 0 0 0 0 0 0 0 0 0 0 0 0 0 0 0 0 0 0
248 235 246 149 29 45 57 124 0 0 0 0 0 0 0 0 0 0 0 0 0 0 0 0 0 0 0 0 0 0 0 0
354 320 225 149 138 44 37 2 0 0 0 0 0 0 0 0 0 0 0 0 0 0 0 0 0 0 0 0 0 0 0 0
434 360 232 176 101 0 0 0 0 0 0 0 0 0 0 0 0 0 0 0 0 0 0 0 0 0 0 0 0 0 0 0
405 226 97 61 0 0 0 0 0 0 0 0 0 0 0 0 0 0 0 0 0 0 0 0 0 0 0 0 0 0 0 0
461 253 101 34 0 0 0 0 0 0 0 0 0 0 0 0 0 0 0 0 0 0 0 0 0 0 0 0 0 0 0 0
494 346 182 60 0 0 0 0 0 0 0 0 0 0 0 0 0 0 0 0 0 0 0 0 0 0 0 0 0 0 0 0
457 406 288 41 0 0 0 0 0 0 0 0 0 0 0 0 0 0 0 0 0 0 0 0 0 0 0 0 0 0 0 0
393 432 441 91 0 0 0 0 0 0 0 0 0 0 0 0 0 0 0 0 0 0 0 0 0 0 0 0 0 0 0 0

GFSFLT2_con_sbcape_030.txt.gz
CAPE
44 0 0 35 206 300 419 495 527 587 628 591 480 442 361 380 363 411 425 261 205 282 254 66 0 0 0 0 0 0 0 0
3 1 0 0 117 340 430 444 488 505 500 344 335 291 332 325 302 351 473 276 159 169 71 0 0 0 0 0 0 0 0 0
5 1 7 35 104 261 452 572 441 339 342 280 145 44 28 59 183 293 339 160 43 1 0 0 0 0 0 0 0 0 0 0
5 8 14 5 85 143 349 384 228 261 226 138 107 194 62 34 153 123 29 2 0 0 0 0 0 0 0 0 0 0 0 0
6 2 2 1 0 77 227 197 253 266 197 122 154 206 139 165 132 4 0 0 0 0 0 0 0 0 0 0 0 0 0 0
12 0 0 0 0 49 84 104 125 151 147 162 227 148 166 93 50 3 0 0 0 0 0 0 0 0 0 0 0 0 0 0
0 0 0 0 6 11 79 151 123 62 87 112 97 46 115 36 3 0 0 0 0 0 0 0 0 0 0 0 0 0 0 0
0 2 0 28 77 122 57 80 30 69 221 354 292 84 65 0 0 0 0 0 0 0 0 0 0 0 0 0 0 0 0 0
3 41 88 20 150 254 10 75 39 130 380 516 368 89 6 0 0 0 0 0 0 0 0 0 0 0 0 0 0 0 0 0
35 71 149 176 267 206 0 53 117 290 511 592 323 76 0 0 0 0 0 0 0 0 0 0 0 0 0 0 0 0 0 0
44 117 214 441 587 187 10 142 425 702 742 597 295 42 0 0 0 0 0 0 0 0 0 0 0 0 0 0 0 0 0 0
200 299 447 687 619 228 42 329 646 853 778 541 171 7 0 0 0 0 0 0 0 0 0 0 0 0 0 0 0 0 0 0
289 303 425 749 647 171 92 439 663 825 765 456 113 0 0 0 0 0 0 0 0 0 0 0 0 0 0 0 0 0 0 0
524 517 605 766 501 156 176 375 623 819 575 355 105 0 0 0 0 0 0 0 0 0 0 0 0 0 0 0 1 0 0 0
544 630 710 711 479 250 437 555 298 473 187 120 110 0 0 0 0 0 0 0 0 0 0 0 0 0 0 0 0 0 0 0
647 615 723 805 749 522 411 459 525 432 204 147 16 0 0 0 0 0 0 0 0 0 0 0 0 0 0 0 0 0 0 0
1035 984 902 840 847 650 582 688 746 683 117 11 0 0 0 0 0 0 0 0 0 0 0 0 0 0 0 0 0 0 0 0
1096 1213 1099 920 944 862 844 861 888 388 18 0 0 0 0 0 0 0 0 0 0 0 0 0 0 0 0 0 0 0 0 0
1366 1341 1195 1091 1071 978 1001 976 791 203 2 0 0 0 0 0 0 0 0 0 0 0 0 0 0 0 0 0 0 0 0 0
1563 1397 1400 1253 1128 958 683 483 237 3 0 0 0 0 0 0 0 0 0 0 0 0 0 0 0 0 0 0 0 0 0 0

GFSFLT2_con_sbcape_033.txt.gz
CAPE
256 345 443 344 273 316 389 529 658 717 754 640 460 397 411 413 341 296 355 348 350 239 114 13 0 0 0 0 0 0 0 0
1 2 42 384 328 351 431 520 611 572 439 353 330 340 382 367 348 294 298 363 310 94 9 0 0 0 0 0 0 0 0 0
0 0 5 64 180 427 562 610 424 373 334 237 146 121 108 151 324 360 249 196 130 25 0 0 0 0 0 0 0 0 0 0
7 2 0 0 0 2 49 77 143 220 137 221 140 270 299 133 223 206 94 7 0 0 0 0 0 0 0 0 0 0 0 0
6 0 0 0 0 0 84 167 243 301 373 311 361 371 283 277 97 9 0 0 0 0 0 0 0 0 0 0 0 0 0 0
12 24 1 0 0 29 121 105 186 249 265 311 457 401 488 442 219 47 13 0 0 0 0 0 0 0 0 0 0 0 0 0
1 0 0 0 0 0 75 103 139 163 292 306 286 370 445 272 207 62 2 0 0 0 0 0 0 0 0 0 0 0 0 0
0 0 0 0 1 2 67 185 96 167 248 252 208 212 418 216 161 14 1 0 0 0 0 0 0 0 0 0 0 0 0 0
0 0 0 20 16 2 33 61 140 177 167 599 370 173 314 232 146 42 0 0 0 0 0 0 0 0 0 0 0 0 0 0
0 0 13 16 49 88 141 126 123 107 302 604 586 402 330 243 142 42 0 0 0 0 0 0 0 0 0 0 0 0 0 0
18 73 13 73 242 214 120 181 194 237 748 909 686 475 284 261 152 32 0 0 0 0 0 0 0 0 0 0 0 0 0 0
86 183 158 149 356 344 109 15 126 358 712 777 765 504 274 260 130 0 0 0 0 0 0 0 0 0 0 0 0 0 0 0
55 110 193 377 402 285 49 15 163 551 784 845 697 464 254 197 79 8 0 0 0 0 0 0 0 0 0 0 0 0 0 0
220 189 301 379 258 258 30 64 163 547 1029 793 708 577 226 144 109 0 0 0 0 0 0 0 0 0 0 0 1 0 0 0
400 397 434 548 427 280 39 40 360 482 690 778 755 534 244 95 63 0 1 0 0 0 0 0 0 0 0 0 0 4 0 0
535 504 485 532 531 333 107 228 294 561 691 702 602 538 290 77 13 3 0 0 0 0 0 0 0 0 0 0 0 0 0 0
728 609 627 649 728 640 463 438 477 538 691 730 561 597 227 48 0 1 0 0 0 0 0 0 0 0 0 0 10 0 0 0
1040 710 639 715 861 942 1264 886 768 769 1171 703 573 259 12 0 0 0 0 0 0 0 0 0 0 0 0 0 0 0 0 0
1179 951 869 887 1042 1104 1288 1028 1117 1088 960 644 129 4 0 0 0 0 0 0 0 0 0 0 0 0 0 0 0 0 0 0
1525 1300 1219 1128 1503 1348 1467 1116 1179 1466 1034 533 48 0 0 0 0 0 0 0 0 0 0 0 0 0 0 0 0 2 0 0

GFSFLT2_con_sbcape_036.txt.gz
CAPE
166 291 568 490 465 552 617 692 807 883 863 709 605 461 394 558 651 516 441 340 240 175 66 0 0 0 0 0 0 5 0 0
28 78 227 296 365 434 524 610 569 418 397 332 298 338 350 348 389 419 391 282 172 32 0 0 0 0 0 0 0 0 0 0
0 9 102 150 187 335 361 483 349 284 247 234 113 89 58 174 291 394 371 221 93 0 0 0 0 0 0 0 0 0 0 0
1 0 0 10 51 122 169 205 161 99 64 136 149 192 168 253 253 272 229 133 30 0 0 0 0 0 0 0 0 0 0 0
0 0 0 0 0 0 0 44 173 203 226 205 270 217 209 198 88 38 3 1 0 0 0 0 0 0 0 0 0 0 0 0
11 0 0 0 0 0 0 23 129 299 252 361 415 355 299 149 76 51 0 0 0 0 0 0 0 0 0 0 0 0 0 0
3 0 0 0 0 0 1 46 125 170 333 371 403 336 394 235 167 64 0 8 0 0 0 0 0 0 0 0 0 0 0 0
0 1 0 0 33 45 16 73 72 135 284 330 359 389 365 334 313 216 89 0 0 0 0 0 0 0 0 0 0 0 0 0
0 0 0 0 0 2 17 43 2 58 220 296 321 162 231 351 153 166 91 3 1 0 0 0 0 0 0 0 0 0 0 0
0 0 0 0 0 0 0 5 87 154 160 370 365 321 360 480 285 150 57 0 0 0 0 0 0 0 0 0 0 0 0 0
0 0 0 0 0 0 4 56 211 214 158 569 555 551 379 348 283 158 39 0 0 0 0 0 0 0 0 0 0 0 0 0
0 0 0 0 0 0 4 24 81 54 129 465 423 442 402 343 380 129 0 0 0 0 0 0 0 0 0 0 0 0 0 0
0 0 0 18 15 7 109 0 2 11 331 483 494 490 327 328 286 39 0 0 0 0 0 0 0 0 0 0 0 0 0 0
0 3 5 8 18 122 103 0 0 21 472 521 376 333 242 294 246 34 8 0 0 0 0 0 0 0 0 0 0 0 0 0
52 116 95 67 118 181 153 10 3 2 565 650 564 476 447 157 142 79 27 5 0 0 0 0 0 0 0 0 0 0 0 0
89 41 45 98 173 88 134 0 0 56 532 581 586 646 493 247 150 115 44 2 1 0 0 0 0 0 0 0 0 0 0 0
278 263 244 270 345 368 247 12 3 35 512 558 624 553 498 211 174 19 4 0 0 0 0 0 0 0 0 0 0 0 0 0
588 459 442 376 449 411 494 84 191 346 489 575 510 357 453 234 27 0 0 0 0 0 0 0 0 0 0 0 0 0 0 0
643 642 586 603 670 759 500 626 434 484 665 680 408 331 45 0 0 0 0 0 0 0 0 0 0 0 0 0 0 0 0 0
581 622 622 584 677 838 864 649 825 842 737 558 309 162 0 0 0 0 0 0 0 0 0 0 0 0 0 0 0 0 0 0

GFSFLT2_con_sbcape_039.txt.gz
CAPE
132 232 476 196 87 528 731 791 810 851 726 701 740 834 857 702 608 492 336 237 125 20 0 0 0 0 0 0 0 0 0 0
144 82 90 227 284 422 572 603 455 339 324 229 237 474 630 510 400 342 242 184 86 0 0 0 0 0 0 0 0 0 0 0
75 49 46 66 131 368 493 456 229 178 136 56 8 31 112 212 325 308 227 112 34 0 0 0 0 0 0 0 0 0 0 0
1 2 19 9 50 98 145 78 18 11 4 7 1 40 84 205 278 258 186 97 37 12 0 0 0 0 0 0 0 0 0 0
0 0 0 0 2 12 22 21 9 22 39 46 74 99 74 66 93 77 49 10 0 0 0 0 0 0 0 0 0 0 0 0
0 0 0 0 0 0 0 19 28 36 88 103 93 98 58 47 13 0 0 0 0 0 0 0 0 0 0 0 0 0 0 0
0 0 0 0 0 0 0 7 31 60 143 153 172 117 66 42 10 0 0 0 0 0 0 0 0 0 0 0 0 0 0 0
5 0 0 0 0 0 0 26 25 14 120 156 186 148 100 48 47 0 0 0 0 0 0 0 0 0 0 0 0 0 0 0
4 3 0 0 0 1 1 31 15 8 5 148 137 160 140 173 47 19 0 0 0 0 0 0 0 0 0 0 0 0 0 0
0 0 0 0 0 0 2 0 0 0 0 63 100 37 43 62 16 9 0 0 0 0 0 0 0 0 0 0 0 0 0 0
0 0 0 0 0 0 0 0 0 0 0 0 83 147 63 119 44 4 0 0 0 0 0 0 0 0 0 0 0 0 0 0
0 0 0 0 0 0 0 0 0 0 10 91 161 175 153 110 69 13 0 0 0 0 0 0 0 0 0 0 0 0 0 0
0 0 0 0 0 0 0 0 0 1 0 196 198 178 250 65 55 8 0 0 0 0 0 0 0 0 0 0 0 0 0 0
0 0 0 0 0 0 0 0 0 0 0 61 187 241 160 51 0 0 0 0 0 0 0 0 0 0 0 0 0 0 0 0
0 0 0 0 0 0 0 0 0 0 0 39 156 47 0 42 0 0 0 0 0 0 0 0 0 0 0 0 0 0 0 0
0 0 0 0 0 0 0 0 0 0 0 109 73 67 13 55 2 0 0 0 0 0 0 0 0 0 0 0 0 0 0 0
0 0 0 0 0 0 0 0 0 0 0 139 115 92 117 38 0 0 0 0 0 0 0 0 0 0 0 0 0 0 0 0
0 0 0 0 0 0 3 0 0 0 0 214 179 160 94 6 6 0 0 0 0 0 0 0 0 0 0 0 0 0 0 0
0 0 0 0 0 0 0 0 0 0 0 43 111 74 16 34 0 0 0 0 0 0 0 0 0 0 0 0 0 0 0 0
14 4 5 8 4 48 33 11 0 0 9 17 38 71 76 0 0 0 0 0 0 0 0 0 0 0 0 0 0 0 0 0

GFSFLT2_con_sbcape_042.txt.gz
CAPE
229 65 79 245 149 450 524 700 824 1045 1136 1183 1173 699 679 555 399 256 79 34 0 0 0 0 0 0 0 0 0 0 0 0
36 97 20 5 58 408 448 457 382 465 644 620 519 536 543 416 209 163 72 27 7 0 0 0 0 0 0 0 0 0 0 0
1 3 22 12 125 315 296 324 200 209 296 227 134 111 96 22 84 141 63 29 2 0 0 0 0 0 0 0 0 0 0 0
8 0 38 43 91 66 65 35 1 10 2 0 0 0 31 28 63 64 39 37 20 0 0 0 0 0 0 0 0 0 0 0
2 4 9 0 20 13 0 0 0 0 0 23 0 25 43 36 29 6 0 11 0 0 0 0 0 0 0 0 0 0 0 0
4 6 8 9 4 0 0 0 0 0 5 24 4 5 12 4 5 0 0 0 0 0 0 0 0 0 0 0 0 0 0 0
0 0 0 0 0 0 0 0 2 24 10 3 9 6 3 0 0 0 0 0 0 0 0 0 0 0 0 0 0 0 0 0
0 0 0 0 0 0 0 0 3 43 10 22 23 10 2 0 0 0 0 0 0 0 0 0 0 0 0 0 0 0 0 0
1 0 0 0 0 0 0 0 0 2 1 23 50 32 28 6 0 0 0 0 0 0 0 0 0 0 0 0 0 0 0 0
2 0 0 0 0 0 0 0 0 0 0 17 55 83 67 31 31 0 0 0 0 0 0 0 0 0 0 0 0 0 0 0
2 0 0 0 0 0 0 0 0 0 0 2 47 52 30 18 0 0 0 0 0 0 0 0 0 0 0 0 0 0 0 0
0 0 0 0 0 0 0 0 0 0 0 0 1 18 15 7 0 0 0 0 0 0 0 0 0 0 0 0 0 0 0 0
0 0 0 0 0 0 0 0 0 0 0 0 21 0 70 0 0 0 0 0 0 0 0 0 0 0 0 0 0 0 0 0
0 0 0 0 0 0 0 0 0 0 0 0 6 72 37 4 0 0 0 0 0 0 0 0 0 0 0 0 0 0 0 0
0 0 0 0 0 0 0 0 0 0 0 0 0 40 44 23 0 0 0 0 0 0 0 0 0 0 0 0 0 0 0 0
0 0 0 0 0 0 0 0 0 0 0 0 0 4 8 0 0 0 0 0 0 0 0 0 0 0 0 0 0 0 0 0
0 0 0 0 0 0 0 0 0 0 0 0 0 0 0 0 0 0 0 0 0 0 0 0 0 0 0 0 0 0 0 0
0 0 0 0 0 0 0 0 0 0 0 0 0 0 1 0 0 0 0 0 0 0 0 0 0 0 0 0 0 0 0 0
0 0 0 0 0 0 0 0 0 0 0 0 0 0 0 1 3 0 0 0 0 0 0 0 0 0 0 0 0 0 0 0
0 0 0 0 0 0 0 0 0 0 0 0 4 32 57 26 6 0 0 0 0 0 0 0 0 0 0 0 0 0 0 0

GFSFLT2_con_sbcape_045.txt.gz
CAPE
437 331 258 81 1 39 327 908 855 840 853 783 696 324 181 143 15 0 0 0 0 0 0 0 0 0 0 0 0 0 0 0
182 91 93 24 30 95 363 757 885 1002 936 614 372 249 137 24 0 0 0 0 0 0 0 6 12 0 0 0 0 0 0 0
46 105 26 0 0 1 226 724 839 845 567 361 87 0 0 0 0 0 0 0 0 0 0 11 4 0 0 0 0 0 0 0
0 1 12 16 6 4 120 447 320 312 238 46 0 0 0 0 0 0 0 0 0 0 0 0 0 0 0 0 0 0 0 0
1 0 0 3 41 65 92 68 54 83 56 0 0 0 0 0 0 0 0 0 0 0 0 0 0 0 0 0 0 0 0 0
0 6 11 1 0 2 25 47 44 55 0 0 0 0 0 0 0 0 0 0 0 0 0 0 0 0 0 0 0 0 0 0
1 0 0 12 19 16 0 13 30 0 0 0 0 0 0 0 0 0 0 0 0 0 0 0 0 0 0 0 0 0 0 0
1 2 0 0 1 0 0 2 0 0 0 0 0 0 0 0 0 0 0 0 0 0 0 0 0 0 0 0 0 0 0 0
0 0 1 0 0 0 0 0 11 0 0 0 0 0 0 0 0 0 0 0 0 0 0 0 0 0 0 0 0 0 0 0
0 1 0 0 0 0 0 6 18 11 2 0 0 0 1 0 0 0 0 0 0 0 0 0 0 0 0 0 0 0 0 0
1 0 0 0 0 0 0 0 0 1 4 7 11 9 23 13 8 0 0 0 0 0 0 0 0 0 0 0 0 0 0 0
0 0 0 0 0 0 0 0 0 0 0 9 28 22 34 19 0 0 0 0 0 0 0 0 0 0 0 0 0 0 0 0
1 2 0 0 0 0 0 0 0 0 0 0 0 10 36 2 0 0 0 0 0 0 0 0 0 0 0 0 0 0 0 0
0 0 0 0 0 0 0 0 0 0 0 0 0 15 13 14 0 0 0 0 0 0 0 0 0 0 0 0 0 0 0 0
0 0 0 0 0 0 0 0 0 0 0 0 0 0 8 15 0 0 0 0 0 0 0 0 0 0 0 0 0 0 0 0
0 0 0 0 0 0 0 0 0 0 0 0 0 0 6 43 23 0 0 0 0 0 0 0 0 0 0 0 0 0 0 0
0 0 0 0 0 0 0 0 0 0 0 0 0 0 0 0 3 0 0 0 0 0 0 0 0 0 0 0 0 0 0 0
0 0 0 0 0 0 0 0 0 0 0 0 0 0 0 0 0 0 0 0 0 0 0 0 0 0 0 0 0 0 0 0
0 0 0 0 0 0 0 0 0 0 0 0 0 0 0 0 0 0 0 0 0 0 0 0 0 0 0 0 0 0 0 0
0 0 0 0 0 0 0 0 0 0 0 0 0 0 0 0 0 0 0 0 0 0 0 0 0 0 0 0 0 0 0 0

GFSFLT2_con_sbcape_048.txt.gz
CAPE
123 479 493 283 14 4 100 313 596 774 674 570 459 296 177 102 1 0 1 189 92 19 0 0 0 0 0 0 0 0 0 0
105 309 74 0 0 0 10 150 279 656 680 569 359 238 104 0 0 0 0 0 0 7 3 0 0 0 0 0 0 0 0 0
329 176 0 0 0 0 0 11 310 555 658 400 183 40 0 0 0 0 0 0 0 17 29 2 0 0 0 0 0 0 0 0
41 30 7 7 17 0 0 4 162 375 355 217 69 0 0 0 0 0 0 0 0 28 28 16 0 0 0 0 0 0 0 0
0 1 0 1 1 1 0 37 69 225 169 137 19 1 0 0 0 0 0 0 0 0 0 0 0 0 0 0 0 0 0 0
5 1 0 0 0 45 3 11 15 116 122 56 40 11 0 0 0 0 0 0 0 0 0 0 0 0 0 0 0 0 0 0
12 5 2 0 0 10 2 8 40 80 79 60 52 7 0 0 0 0 0 0 0 0 0 0 0 0 0 0 0 0 0 0
3 8 2 8 3 2 2 20 64 62 24 11 10 0 0 0 0 0 0 0 0 0 0 0 0 0 0 0 0 0 0 0
1 0 8 9 14 13 2 1 0 9 1 0 2 1 0 0 0 0 0 0 0 0 0 0 0 0 0 0 0 0 0 0
2 6 4 8 4 0 0 0 2 7 13 5 3 0 0 0 0 0 0 0 0 0 0 0 0 0 0 0 0 0 0 0
3 2 1 1 0 0 0 0 4 7 17 17 3 0 0 0 0 0 0 0 0 0 0 0 0 0 0 0 0 0 0 0
1 1 0 0 0 0 0 0 0 2 21 45 37 24 15 1 0 0 0 0 0 0 0 0 0 0 0 0 0 0 0 0
0 1 2 0 0 0 1 5 0 0 0 13 72 61 55 30 8 0 0 0 0 0 0 0 0 0 0 0 0 0 0 0
0 0 1 1 0 0 0 0 0 0 0 0 13 40 58 36 1 0 0 0 0 0 0 0 0 0 0 0 0 0 0 0
0 0 0 0 0 0 0 0 0 0 0 0 0 0 8 14 10 1 0 0 0 0 0 0 0 0 0 0 0 0 0 0
0 0 0 0 0 0 0 0 0 0 0 0 0 0 0 4 3 0 0 0 0 0 0 0 0 0 0 0 0 0 0 0
0 0 0 0 0 0 0 0 0 0 0 0 0 0 0 0 1 0 0 0 0 0 0 0 0 0 0 0 0 0 0 0
0 0 0 0 0 0 0 0 0 0 0 0 0 0 0 0 0 0 0 0 0 0 0 0 0 0 0 0 0 0 0 0
0 0 0 0 0 0 0 0 0 0 0 0 0 0 0 0 0 0 0 0 0 0 0 0 0 0 0 0 0 0 0 0
0 0 0 0 0 0 0 0 0 0 0 0 0 0 0 0 0 0 0 0 0 0 0 0 0 0 0 0 0 0 0 0

GFSFLT2_con_sbcape_051.txt.gz
CAPE
719 840 576 352 579 760 827 906 833 753 570 422 461 449 379 202 140 359 333 418 281 150 2 0 0 0 0 0 0 0 0 1
216 256 558 116 69 33 407 510 317 253 420 258 260 250 150 55 224 474 427 289 190 55 14 1 4 0 0 0 0 0 0 2
517 666 447 65 1 0 128 358 262 174 325 203 132 118 0 0 54 258 220 109 63 30 14 10 4 0 0 0 0 1 2 5
247 218 113 3 1 1 41 165 133 123 334 254 97 39 0 0 21 58 85 90 68 55 24 6 0 0 0 0 0 0 1 6
36 7 2 4 4 0 0 19 59 94 343 159 47 0 0 1 2 14 32 57 52 22 4 0 0 0 0 0 0 0 3 10
3 5 4 5 7 0 1 29 40 91 310 88 0 10 0 3 2 0 0 9 63 12 0 0 0 0 0 0 0 0 1 8
2 1 2 3 1 19 11 8 50 93 195 72 6 12 5 0 0 0 0 0 0 0 0 0 0 0 0 0 0 0 1 6
4 3 1 0 11 3 20 4 33 97 141 79 74 25 6 0 0 0 0 0 0 0 0 0 0 0 0 0 0 0 0 0
6 10 5 1 9 9 25 9 41 84 90 91 107 17 12 3 0 0 0 0 0 0 0 0 0 0 0 0 0 0 0 0
5 12 6 1 15 17 32 2 19 33 58 93 49 25 6 0 0 0 0 0 0 0 0 0 0 0 0 0 0 0 0 0
6 5 6 8 1 12 17 2 12 17 40 74 58 30 3 3 0 0 0 0 0 0 0 0 0 0 0 0 0 0 0 0
4 7 8 14 6 0 1 11 0 13 52 57 42 43 25 14 1 0 0 3 0 0 0 0 0 0 0 0 0 0 0 0
6 3 2 2 2 7 6 3 0 8 93 75 77 77 65 58 34 10 0 0 21 2 0 0 0 0 0 0 0 0 0 0
2 3 2 2 1 1 0 0 0 4 12 57 86 91 64 81 84 53 23 9 13 4 0 0 0 0 0 0 0 0 0 0
5 2 1 1 6 0 0 0 0 0 0 7 29 71 67 115 146 146 102 114 36 24 3 0 0 0 0 0 0 0 0 0
2 12 3 2 1 0 0 0 0 0 0 0 0 12 69 116 183 136 90 134 129 98 13 0 0 0 0 0 0 0 0 0
0 9 12 6 0 0 0 0 0 0 0 0 0 0 6 26 62 111 141 119 112 82 11 0 0 7 0 0 0 0 0 0
2 7 9 6 3 0 0 0 0 0 0 0 0 0 0 1 7 65 104 114 99 57 42 0 0 0 0 0 0 0 0 0
0 3 3 5 2 0 0 0 0 0 0 0 0 0 0 0 5 25 29 31 73 90 38 19 0 0 0 0 0 0 0 0
1 5 4 1 2 0 0 0 0 0 0 0 0 0 0 0 1 5 5 0 11 47 75 57 27 9 3 2 0 0 0 0

GFSFLT2_con_sbcape_054.txt.gz
CAPE
1547 1401 1037 946 804 1111 1166 1102 1031 1019 1120 1150 1011 801 641 518 372 368 423 338 175 116 12 0 0 0 0 0 0 3 2 2
633 634 866 839 1009 286 697 851 831 778 875 748 569 520 291 300 299 511 497 305 148 111 28 0 0 0 0 0 0 0 4 1
423 88 78 355 304 245 637 663 561 523 537 390 265 294 192 112 105 413 351 132 101 99 26 0 0 0 0 0 0 1 3 2
564 17 233 219 109 11 54 215 377 257 112 181 326 335 141 38 347 312 211 100 103 74 22 0 0 0 0 0 3 3 6 5
582 192 255 61 1 1 7 89 57 33 38 93 238 225 53 243 417 286 173 53 8 9 0 0 0 0 0 0 4 5 10 8
132 305 178 145 28 27 29 97 64 74 56 94 405 192 169 143 142 156 108 52 34 13 2 0 0 0 0 0 4 7 19 17
82 32 21 5 5 6 14 43 30 55 85 171 206 147 140 61 107 129 127 141 94 45 17 11 0 0 0 0 2 2 16 15
4 8 10 9 6 13 11 8 25 67 80 182 104 98 101 24 33 12 29 97 89 23 15 4 0 0 0 0 0 1 4 10
7 5 4 3 9 13 4 35 33 93 131 184 92 63 79 63 3 6 6 10 18 1 6 0 0 0 0 0 0 0 0 3
9 11 11 10 14 16 2 45 43 82 139 132 70 16 63 51 9 6 2 2 3 0 3 0 0 0 0 0 0 0 0 0
6 9 17 19 29 27 10 16 16 46 138 96 60 21 4 26 8 15 28 10 6 0 0 0 0 0 0 0 0 0 0 0
7 11 16 20 26 44 33 15 8 31 64 122 94 32 41 38 14 34 53 27 27 1 0 0 0 0 0 0 0 0 0 0
8 6 10 11 13 31 37 17 0 14 5 75 174 58 53 70 32 56 51 73 73 52 27 4 0 0 0 0 0 0 0 0
17 7 13 9 10 17 18 5 0 0 8 50 135 171 60 88 64 49 46 101 146 128 93 44 22 0 0 17 7 1 0 0
11 12 6 8 4 10 6 4 6 8 6 68 144 190 114 104 114 103 85 87 127 194 187 164 175 52 40 110 94 49 79 0
27 13 8 7 7 8 4 0 2 1 0 31 93 168 150 115 133 157 204 151 131 207 215 206 276 198 18 9 102 159 144 93
13 20 19 6 8 6 0 5 0 0 0 23 113 155 146 107 133 208 274 346 302 354 300 302 289 483 163 159 45 46 26 21
8 17 23 11 6 9 0 0 3 8 0 0 5 21 132 180 173 268 303 292 361 490 467 398 372 306 388 308 231 149 74 27
6 7 12 21 12 11 12 7 4 28 0 0 1 0 7 30 111 123 120 159 224 258 369 427 429 407 377 343 242 202 171 105
0 1 6 16 20 14 29 28 61 21 9 1 2 0 22 17 42 66 56 73 94 119 138 215 262 391 396 388 312 275 148 11

GFSFLT2_con_sbcape_057.txt.gz
CAPE
1894 1610 1256 840 610 585 376 915 1097 1203 1171 1142 1031 761 658 669 690 540 257 184 142 31 14 12 0 0 0 0 0 10 4 4
1429 1319 1159 804 1021 280 224 289 569 983 1074 963 872 709 690 585 419 435 251 205 133 34 8 14 0 0 0 0 0 0 5 3
340 874 883 751 596 334 372 322 327 766 969 615 473 611 579 320 267 370 227 79 53 3 5 0 0 0 0 0 0 17 19 7
470 198 440 438 366 61 203 170 213 445 747 621 211 253 322 247 296 265 118 42 0 2 0 0 0 0 0 0 8 29 23 7
233 104 79 197 54 250 76 861 619 300 83 2 0 198 274 352 430 365 61 1 0 0 0 0 0 0 0 8 10 25 22 7
297 29 59 75 65 119 79 24 34 11 24 31 58 142 278 443 307 211 22 0 0 0 0 14 0 0 5 13 19 35 22 8
79 68 190 31 6 33 22 99 36 29 4 32 51 171 241 386 309 221 65 87 1 3 10 5 2 4 9 16 27 38 21 8
5 3 7 9 7 13 18 50 21 18 0 18 53 183 205 310 319 290 188 170 69 20 32 4 1 3 7 16 22 27 42 13
5 8 8 2 3 7 14 17 20 3 9 47 126 182 265 393 369 306 256 242 158 57 16 3 0 1 3 3 8 14 17 45
15 7 3 3 5 9 4 3 12 13 23 113 156 168 224 284 164 130 84 152 83 31 0 1 0 0 1 0 1 3 4 6
8 15 14 11 12 4 7 9 16 39 63 144 171 126 88 114 28 85 92 81 59 13 9 6 1 0 1 0 0 0 0 0
8 12 12 16 14 3 9 6 26 46 73 110 79 59 84 117 102 187 77 40 15 6 60 8 10 1 0 0 0 0 0 0
22 9 16 22 18 9 16 9 13 30 83 89 107 69 72 110 69 190 169 98 69 135 13 3 1 1 0 0 0 0 0 0
13 7 12 14 24 43 5 1 5 7 15 120 122 145 63 95 110 78 156 151 261 227 168 34 5 2 0 0 0 0 0 0
12 5 12 14 22 58 33 38 7 13 0 34 108 163 72 78 119 144 167 239 327 333 239 200 92 61 68 70 82 59 92 33
19 11 6 21 18 17 15 11 13 0 0 0 45 137 114 52 130 253 293 229 352 426 319 297 341 253 157 67 331 261 221 56
17 11 8 8 15 11 20 19 10 0 0 0 67 130 75 101 193 296 327 314 371 405 440 463 378 367 343 270 229 242 288 206
16 27 11 7 14 15 17 9 6 3 1 0 48 93 154 125 186 241 346 468 498 437 436 529 549 474 428 351 300 193 181 250
6 10 27 11 8 6 15 22 1 8 7 0 0 8 33 121 198 182 324 414 453 252 379 590 626 648 539 546 405 276 336 325
9 2 8 24 16 12 20 21 15 25 14 15 6 0 0 62 212 305 399 481 525 403 451 457 271 387 660 455 569 241 385 385

GFSFLT2_con_sbcape_060.txt.gz
CAPE
1926 1722 1353 711 746 532 219 4 2 727 1185 1116 984 756 724 740 827 582 439 251 144 62 3 0 0 0 0 0 0 31 0 0
1415 1370 1313 643 549 233 7 11 0 6 906 792 552 597 712 761 510 441 317 196 132 41 0 0 0 0 0 0 0 27 0 0
897 1131 1234 870 207 220 10 5 0 58 591 483 312 392 441 414 258 283 212 104 66 10 0 0 0 0 0 0 3 1 0 0
635 770 674 306 157 130 6 1 1 105 359 284 324 360 246 235 155 205 158 66 7 0 0 0 0 0 0 0 0 7 0 0
730 381 446 193 113 116 41 39 124 61 149 153 161 168 205 169 107 74 13 1 0 0 0 0 0 0 0 0 9 6 0 0
384 297 167 130 184 139 29 10 70 19 0 0 49 32 113 169 108 3 0 0 0 0 0 0 0 0 0 4 13 1 0 0
185 16 9 120 126 180 79 66 2 0 0 0 0 10 48 115 83 1 0 0 0 0 0 0 0 0 16 14 29 2 0 0
23 16 78 9 110 78 113 50 2 0 0 0 9 18 25 110 136 22 0 0 0 0 1 0 0 0 4 6 26 8 0 0
4 1 0 3 37 57 40 38 2 0 0 0 4 1 24 145 151 107 27 6 0 0 5 0 4 2 2 7 3 26 0 0
2 4 2 3 8 12 22 46 11 2 0 0 0 3 91 136 149 124 64 35 28 35 0 0 1 0 0 0 0 0 13 0
9 4 3 2 2 4 4 5 2 1 0 0 0 0 78 62 46 60 102 57 35 17 1 0 0 4 0 0 0 0 0 1
5 11 10 6 5 4 9 3 2 3 0 0 21 21 13 1 26 12 9 15 28 10 5 4 3 2 0 0 0 0 0 0
3 8 13 7 4 5 2 8 15 11 11 5 27 19 4 29 35 46 31 3 0 23 36 13 7 0 8 0 0 0 0 0
16 8 14 11 2 2 2 4 2 9 21 0 0 4 7 30 50 60 73 119 102 50 15 25 5 0 0 0 0 0 0 0
5 9 10 7 9 4 2 2 3 1 1 3 15 14 3 15 58 90 96 118 84 71 73 49 0 0 0 0 0 0 0 0
4 6 3 7 9 12 1 3 6 0 0 2 25 79 30 32 61 79 70 47 126 140 139 127 104 2 0 0 19 105 65 3
0 6 4 3 12 11 11 5 1 0 0 0 2 59 121 39 54 100 67 42 43 99 149 165 150 147 45 81 48 86 129 94
1 10 10 6 3 11 11 7 0 0 0 0 0 4 91 98 49 68 110 122 74 109 155 171 157 205 159 154 134 134 102 103
1 2 13 13 2 2 3 14 2 0 0 0 0 0 22 62 42 41 78 77 126 159 145 160 230 168 174 149 163 75 67 92
0 2 9 9 10 4 4 3 6 1 0 0 0 0 1 19 21 15 46 60 87 167 170 135 112 117 112 70 153 126 80 67

GFSFLT2_con_sbcape_063.txt.gz
CAPE
1144 839 982 911 752 617 135 330 21 92 309 1209 1068 844 817 819 840 677 504 270 151 77 41 0 0 0 0 0 0 0 0 0
865 842 769 303 156 47 10 0 1 0 5 100 546 372 637 675 600 546 362 184 124 82 24 0 0 0 0 0 0 0 0 0
471 708 658 85 85 14 0 1 0 2 8 0 319 379 376 323 337 337 202 80 49 7 0 0 0 0 0 0 0 0 0 0
321 320 340 105 96 24 16 2 0 2 11 3 219 265 181 224 186 176 99 40 22 0 0 0 0 0 0 0 0 0 0 0
171 254 43 42 12 2 16 1 0 0 53 98 176 225 180 61 66 50 20 3 0 0 0 0 0 0 0 0 0 0 0 0
167 116 26 2 24 3 0 1 12 4 39 84 93 93 47 34 31 26 5 0 0 0 0 0 0 0 0 0 0 0 0 0
113 48 9 7 15 1 3 35 17 11 27 26 18 35 16 0 2 1 0 0 0 0 0 0 0 0 0 0 0 0 0 0
14 3 2 5 3 2 0 20 1 0 5 7 0 21 10 0 0 0 0 0 0 0 0 0 0 0 0 0 0 0 0 0
3 6 0 10 0 9 5 1 0 0 0 0 0 0 0 11 0 0 0 0 0 0 0 0 0 0 0 0 0 0 0 0
3 5 2 6 0 0 3 0 0 0 0 0 0 0 0 28 4 0 1 0 0 0 0 0 0 0 0 0 0 0 0 0
1 0 1 0 0 1 7 3 0 0 0 0 0 0 0 33 25 1 14 0 0 1 0 0 0 0 0 0 0 0 0 0
0 4 1 1 1 2 3 31 8 0 0 0 0 0 4 3 32 24 28 24 6 1 0 0 0 0 0 0 0 0 0 0
0 4 3 1 1 2 2 1 1 1 0 0 0 0 0 0 5 4 0 15 0 0 0 0 0 0 0 0 0 0 0 0
0 0 3 3 8 6 7 2 1 0 1 0 0 0 0 0 0 0 0 1 0 0 2 1 0 0 0 0 0 0 0 0
0 0 4 4 0 1 2 1 3 2 3 1 0 0 0 0 0 0 0 1 1 1 1 0 3 0 0 0 0 0 0 0
0 0 1 1 2 1 1 1 2 1 1 0 0 0 0 0 0 0 0 15 41 15 2 2 0 0 0 0 0 0 0 0
0 1 1 1 3 1 0 0 0 1 0 0 0 0 0 0 0 0 5 16 40 18 8 1 13 5 0 0 0 0 0 0
0 0 2 4 2 2 0 0 0 0 0 0 0 0 0 0 0 4 5 0 2 46 29 13 17 43 13 0 0 0 0 0
0 0 2 7 3 1 0 0 0 0 0 0 0 0 2 9 1 5 27 15 0 8 54 54 44 33 46 44 21 15 11 9
0 0 1 8 2 1 0 0 0 0 0 0 0 0 0 2 6 1 8 39 45 71 72 75 85 35 66 50 36 26 25 34

GFSFLT2_con_sbcape_066.txt.gz
CAPE
890 1129 1253 762 1062 1011 797 658 829 772 119 745 1160 989 930 1015 981 900 639 480 451 237 97 12 10 0 0 0 0 0 0 0
734 692 626 141 71 163 115 226 151 17 5 2 104 551 771 735 637 582 464 367 256 165 41 23 2 1 0 0 0 0 0 0
279 400 224 41 0 16 34 72 155 51 1 0 1 100 290 428 337 340 310 139 121 81 10 15 0 0 0 0 0 0 0 0
178 222 71 17 1 0 0 0 5 2 0 1 0 61 178 293 267 211 125 116 90 40 0 0 0 0 0 0 0 0 0 0
60 88 133 101 2 4 2 0 0 0 0 0 0 122 157 199 124 65 53 81 7 0 0 0 0 0 0 0 0 0 0 0
38 36 136 35 1 1 1 0 0 0 2 0 13 45 84 57 22 9 11 0 0 0 0 0 0 0 0 0 0 0 0 0
50 55 60 42 2 2 1 0 7 0 37 1 25 57 32 16 12 3 0 0 0 0 0 0 0 0 0 0 0 0 0 0
15 47 35 22 1 1 0 9 14 15 68 33 58 7 3 6 1 0 0 0 0 0 0 0 0 0 0 0 0 0 0 0
11 7 19 2 1 0 8 2 6 17 25 7 17 12 0 0 0 0 0 0 0 0 0 0 0 0 0 0 0 0 0 0
0 16 13 4 3 2 1 0 0 0 0 0 1 2 0 0 0 0 0 0 0 0 0 0 0 0 0 0 0 0 0 0
1 2 2 1 2 1 0 0 0 0 0 0 7 0 0 0 0 0 0 0 0 0 0 0 0 0 0 0 0 0 0 0
0 0 1 0 4 4 2 1 0 0 0 0 1 0 13 3 0 0 0 0 0 0 0 0 0 0 0 0 0 0 0 0
0 1 1 1 1 1 3 2 1 1 0 0 0 0 0 19 0 0 2 0 0 0 0 0 0 0 0 0 0 0 0 0
0 1 1 1 1 0 0 0 0 1 0 0 0 0 0 4 11 1 13 2 0 0 0 0 0 0 0 0 0 0 0 0
0 1 1 0 0 0 0 0 1 1 1 2 0 0 0 0 6 0 4 0 0 0 0 0 0 0 0 0 0 0 0 0
0 0 0 0 0 0 1 1 2 4 0 0 2 0 0 0 0 0 2 5 0 0 0 0 0 2 0 0 0 0 0 0
0 0 0 1 2 0 1 1 1 0 1 1 1 0 0 0 0 0 0 4 0 0 0 0 0 0 0 0 0 0 0 0
0 0 0 0 8 2 1 0 0 0 0 0 0 0 0 0 0 1 0 0 0 0 0 0 0 1 0 0 0 0 0 0
0 0 1 0 1 4 0 0 0 0 0 0 0 0 0 0 0 0 0 0 0 22 11 6 7 8 5 0 0 0 0 0
0 0 0 0 1 0 0 0 0 0 0 0 0 0 0 0 0 0 0 0 0 1 66 50 14 5 20 26 33 3 8 13

GFSFLT2_con_sbcape_069.txt.gz
CAPE
1040 1466 1679 1364 1282 1254 877 875 910 1070 977 704 849 923 1154 1157 1202 1075 948 657 517 358 257 43 89 23 0 0 0 0 0 0
696 737 387 140 344 805 472 144 73 45 183 296 282 221 517 765 809 886 745 531 386 222 45 22 64 0 0 0 0 0 0 0
199 270 126 71 171 500 401 105 0 15 139 88 6 7 172 304 400 401 474 250 209 80 10 28 18 0 0 0 0 0 0 0
18 40 30 15 113 66 128 0 7 7 4 5 2 4 111 106 242 304 249 177 108 34 9 14 0 0 0 0 0 0 0 0
0 4 40 2 1 1 1 4 17 1 0 0 0 4 101 95 108 116 88 90 5 0 0 0 0 0 0 0 0 0 0 0
1 13 34 33 2 1 1 0 1 0 0 0 4 4 44 100 100 16 3 0 0 0 0 0 0 0 0 0 0 0 0 0
0 0 14 21 1 1 1 0 1 1 0 0 4 23 74 73 36 6 0 0 0 0 0 0 0 0 0 0 0 0 0 0
0 0 48 47 9 1 1 0 1 0 3 0 39 42 86 22 11 0 0 0 0 0 0 0 0 0 0 0 0 0 0 0
0 0 30 53 13 1 2 3 2 0 2 0 17 92 72 13 0 0 0 0 0 0 0 0 0 0 0 0 0 0 0 0
1 0 0 20 1 1 1 1 0 4 24 38 8 75 33 2 0 0 0 0 0 0 0 0 0 0 0 0 0 0 0 0
1 1 0 1 5 2 1 0 0 0 1 1 24 5 0 0 0 0 0 0 0 0 0 0 0 0 0 0 0 0 0 0
0 0 1 1 3 1 1 1 1 0 0 0 0 7 0 0 0 0 0 0 0 0 0 0 0 0 0 0 0 0 0 0
1 0 2 1 2 3 1 1 1 0 0 0 0 12 0 0 0 0 0 0 0 0 0 0 0 0 0 0 0 0 0 0
0 0 2 1 2 2 5 4 1 0 0 0 0 0 6 0 0 0 0 0 0 0 0 0 0 0 0 0 0 0 0 0
0 0 0 1 0 0 0 0 1 1 1 1 0 0 0 2 0 0 0 0 2 0 0 0 0 0 0 0 0 2 0 0
0 1 0 0 0 0 0 0 0 0 1 1 2 0 0 0 5 0 0 12 11 3 0 0 0 0 0 0 0 0 0 0
1 0 0 0 0 0 0 0 0 0 0 1 2 1 0 0 0 0 0 14 16 10 1 0 1 1 0 0 0 0 0 0
0 0 0 0 0 0 0 0 0 2 5 3 3 1 0 0 0 0 0 4 2 2 2 0 0 4 0 0 0 0 0 0
0 0 0 0 0 0 0 0 0 5 0 2 1 1 0 0 0 0 0 0 6 0 0 0 0 0 1 0 0 0 0 0
0 0 0 0 0 0 0 0 0 0 1 0 0 0 0 0 0 0 0 0 0 3 0 0 0 0 0 0 0 0 0 0